Location: ?ejkovice
(49.0137°N, 14.3821°E)
Time: 21:19:47
(UTC+00:00)

Resurs 1-4 Rocket - Pass Details

Date: 23 May 2024
Orbit: 798 x 813 km, 98.7° (Epoch: 21 June)

Event Time Altitude Azimuth Distance (km) Brightness Sun altitude
Rises 00:25:02 0° 21° (NNE) 3,319 7.1 -17.8°
Reaches altitude 10° 00:27:33 10° 29° (NNE) 2,383 5.8 -17.6°
Maximum altitude 00:32:26 38° 97° (E) 1,204 3.1 -17.3°
Enters shadow 00:36:02 17° 158° (SSE) 1,931 3.7 -17.1°
